Starlink 6212

operational
NORAD ID: 57330 Int'l Des: 2023-099 Owner: SPXS Country: US Constellation: starlink
LEOCIRCULAR

Über Starlink 6212

Beschreibung wird geladen...

Live-Position

3D-Globus wird geladen...

Nächste Überflüge

Höhenverlauf

Altitude vs Time

uPlot chart will show altitude changes over time

Zweizeiliger Elementsatz

1 57330U 23099C 25351.32663895 .00002689 00000-0 21401-3 0 9995
2 57330 43.0042 336.8086 0001016 283.2067 76.8662 15.02538628133724
Epoch: 17. Dez. 2025 • Age: 5 hours

Aktueller Status

Höhe 558.2 km
Geschwindigkeit 7.58 km/s
Subsatellitenpunkt 5.19°N, 64.99°E
Startdatum 16. Juli 2023
Alter 2.4 years
Typ internet

Technische Details

Klassifizierung Payload
Masse 305.00 kg
Trockenmasse 290.00 kg
Gesamtmasse 305.00 kg
Länge 0.20 m
Durchmesser 2.80 m
Spannweite 9.00 m
Form Box + pan
Hersteller SPXS
Bus-Typ Starlink
Phasenstatus In Orbit
Besitzer/Staat SPXS/US

Große Konstellationen

Loading constellations...